Terug naar catalogus

STARLINK-36688

ActiefCommunicatieSSO
NORAD 67656·PAYLOAD·🇺🇸 United States

Gelanceerd Feb 2, 2026 vanaf Vandenberg Space Force Base

Loading…

Volgende Passages (komende 24 uur)

TLE

VersSource: CelesTrak SupGP

Epoch: Sep 14, 2026, 21:06 UTC

1 67656C 26022J   26257.87965278  .00012592  00000+0  39097-3 0  2572
2 67656  97.2846 289.5825 0000927  95.0783 121.7876 15.33427965    15

Volg STARLINK-36688 in realtime met AllMySat

Download on the App Store